Weather History for Prestonsburg, KY

Change the Weather History Date:

Thursday, July 11, 2013

  Actual Average (KJKL) Record (KJKL)
Temperature  
Mean Temperature 75 °F 76 °F  
Max Temperature 82 °F 85 °F 93 °F (1990)
Min Temperature 68 °F 66 °F 59 °F (2008)
Degree Days  
Heating Degree Days 0 0  
Month to date heating degree days 0  
Since 1 June heating degree days 12  
Since 1 July heating degree days 0  
Cooling Degree Days 10 11  
Month to date cooling degree days 111  
Year to date cooling degree days 470  
Since 1 June cooling degree days 334  
Growing Degree Days 25 (Base 50)    
Moisture  
Dew Point 69 °F    
Average Humidity 87    
Maximum Humidity 100    
Minimum Humidity 61    
Precipitation  
Precipitation 0.00 in 0.14 in 1.57 in (1988)
Month to date precipitation 1.59  
Year to date precipitation 26.80  
Snow  
Snow 0.00 in 0.00 in - ()
Month to date snowfall 0.0  
Since 1 June snowfall 0.0  
Since 1 July snowfall 0.0  
Snow Depth -    
Sea Level Pressure  
Sea Level Pressure 29.98 in    
Wind  
Wind Speed 1 mph (North)    
Max Wind Speed 9 mph    
Max Gust Speed 22 mph    
Visibility 8 miles    
Events Fog , Rain    
T = Trace of Precipitation, MM = Missing Value Source: NWS Daily Summary

Daily Weather History Graph

Daily Weather History Graph

Search for Another Location

Airport:

Trip Planner

Search our weather history database for the weather conditions in past years. The results will help you decide how hot, cold, wet, or windy it might be!

Date:

Astronomy

Jul. 11, 2013 Rise Set
Actual Time 6:18 AM EDT 8:53 PM EDT
Civil Twilight 5:47 AM EDT 9:24 PM EDT
Nautical Twilight 5:09 AM EDT 10:02 PM EDT
Astronomical Twilight 4:26 AM EDT 10:44 PM EDT
Moon 9:31 AM EDT (7/11) 10:38 PM EDT (7/11)
Length of Visible Light 15h 36m
Length of Day
14h 35m
Waxing Crescent, 10% of the Moon is Illuminated
Jul 11
Waxing Crescent
Jul 15
First Quarter
Jul 22
Full
Jul 29
Last Quarter
Aug 6
New

Hourly Weather History & Observations

Time (EDT) Temp. Heat Index Dew Point Humidity Pressure Visibility Wind Dir Wind Speed Gust Speed Precip Events Conditions
12:15 AM 69.8 °F - 69.6 °F 99% 29.99 in 7.0 mi Calm Calm - N/A   Clear
12:35 AM 69.8 °F - 69.4 °F 99% 29.99 in 0.2 mi Calm Calm - N/A Fog Fog
12:55 AM 69.8 °F - 69.4 °F 99% 29.99 in 0.2 mi Calm Calm - N/A Fog Fog
1:15 AM 69.8 °F - 69.8 °F 100% 29.99 in 0.2 mi Calm Calm - N/A Fog Fog
1:35 AM 69.8 °F - 69.8 °F 100% 29.99 in 1.0 mi Calm Calm - N/A   Overcast
1:55 AM 69.8 °F - 69.8 °F 100% 29.99 in 1.5 mi Calm Calm - N/A   Overcast
2:15 AM 70.0 °F - 70.0 °F 100% 29.98 in 5.0 mi Calm Calm - N/A   Overcast
2:35 AM 70.0 °F - 70.0 °F 100% 29.98 in 10.0 mi Calm Calm - N/A   Overcast
2:55 AM 69.8 °F - 69.8 °F 100% 29.98 in 4.0 mi WNW 3.5 mph - N/A   Overcast
3:15 AM 69.4 °F - 69.3 °F 99% 29.98 in 10.0 mi West 3.5 mph - N/A   Overcast
3:35 AM 69.8 °F - 69.3 °F 98% 29.98 in 10.0 mi Calm Calm - N/A   Overcast
3:55 AM 69.8 °F - 69.3 °F 98% 29.98 in 7.0 mi Calm Calm - N/A   Overcast
4:15 AM 69.8 °F - 69.4 °F 99% 29.98 in 5.0 mi Calm Calm - N/A   Overcast
4:35 AM 69.6 °F - 69.3 °F 99% 29.98 in 10.0 mi West 3.5 mph - N/A   Overcast
4:55 AM 69.6 °F - 69.1 °F 98% 29.98 in 10.0 mi Calm Calm - N/A   Overcast
5:15 AM 69.8 °F - 69.1 °F 98% 29.98 in 10.0 mi Calm Calm - N/A   Overcast
5:35 AM 69.8 °F - 69.1 °F 98% 29.98 in 10.0 mi Calm Calm - N/A   Overcast
5:55 AM 69.8 °F - 69.1 °F 98% 29.98 in 10.0 mi Calm Calm - N/A   Overcast
6:15 AM 69.8 °F - 68.9 °F 97% 29.99 in 10.0 mi Calm Calm - N/A   Overcast
6:35 AM 69.8 °F - 68.7 °F 96% 30.00 in 10.0 mi Calm Calm - N/A   Overcast
6:55 AM 69.8 °F - 68.9 °F 97% 30.00 in 10.0 mi Calm Calm - N/A   Overcast
7:15 AM 69.8 °F - 69.1 °F 98% 30.00 in 7.0 mi Calm Calm - N/A   Overcast
7:35 AM 69.8 °F - 69.3 °F 98% 30.00 in 7.0 mi Calm Calm - N/A   Overcast
7:55 AM 70.9 °F - 69.1 °F 94% 30.00 in 10.0 mi Calm Calm - N/A   Overcast
8:15 AM 70.7 °F - 68.4 °F 92% 30.01 in 10.0 mi Calm Calm - N/A   Overcast
8:35 AM 70.7 °F - 68.4 °F 92% 30.01 in 10.0 mi Calm Calm - N/A   Overcast
8:55 AM 70.7 °F - 68.5 °F 93% 30.01 in 10.0 mi Calm Calm - N/A   Overcast
9:15 AM 71.1 °F - 68.9 °F 93% 30.01 in 10.0 mi Calm Calm - N/A   Overcast
9:35 AM 71.1 °F - 68.7 °F 92% 30.01 in 10.0 mi Calm Calm - N/A   Overcast
9:55 AM 71.1 °F - 68.7 °F 92% 30.01 in 10.0 mi Calm Calm - N/A   Overcast
10:15 AM 71.6 °F - 68.9 °F 91% 30.01 in 10.0 mi Calm Calm - N/A   Overcast
10:35 AM 71.6 °F - 68.9 °F 91% 30.01 in 10.0 mi Calm Calm - N/A   Overcast
10:55 AM 71.6 °F - 69.1 °F 92% 30.01 in 10.0 mi Calm Calm - N/A   Overcast
11:15 AM 72.0 °F - 69.3 °F 91% 30.01 in 10.0 mi Calm Calm - N/A   Overcast
11:35 AM 72.7 °F - 69.4 °F 90% 30.01 in 10.0 mi NNW 3.5 mph - N/A   Overcast
11:55 AM 73.4 °F - 68.5 °F 85% 30.01 in 10.0 mi Calm Calm - N/A   Overcast
12:15 PM 74.3 °F - 68.2 °F 81% 30.02 in 10.0 mi NNE 3.5 mph - N/A   Overcast
12:35 PM 75.9 °F - 68.5 °F 78% 30.02 in 10.0 mi West 4.6 mph - N/A   Overcast
12:55 PM 76.6 °F - 69.3 °F 78% 30.01 in 10.0 mi West 3.5 mph - N/A   Overcast
1:15 PM 76.5 °F - 67.5 °F 74% 30.00 in 10.0 mi Calm Calm - N/A   Overcast
1:35 PM 77.5 °F - 68.4 °F 73% 30.00 in 10.0 mi Calm Calm - N/A   Overcast
1:55 PM 79.0 °F - 66.4 °F 65% 29.99 in 10.0 mi Calm Calm - N/A   Scattered Clouds
2:15 PM 78.8 °F - 68.2 °F 70% 29.99 in 10.0 mi Calm Calm - N/A   Mostly Cloudy
2:35 PM 79.3 °F - 69.1 °F 71% 29.98 in 10.0 mi Calm Calm - N/A   Mostly Cloudy
2:55 PM 80.2 °F 83.0 °F 68.5 °F 67% 29.98 in 10.0 mi Calm Calm - N/A   Overcast
3:15 PM 79.0 °F - 67.8 °F 69% 29.98 in 10.0 mi Calm Calm - N/A   Mostly Cloudy
3:35 PM 79.7 °F - 67.3 °F 66% 29.97 in 10.0 mi Calm Calm - N/A   Mostly Cloudy
3:55 PM 82.0 °F 84.7 °F 67.3 °F 61% 29.96 in 10.0 mi Calm Calm - N/A   Mostly Cloudy
4:15 PM 81.5 °F 84.1 °F 67.3 °F 62% 29.96 in 10.0 mi Calm Calm - N/A   Mostly Cloudy
4:35 PM 80.6 °F 83.4 °F 68.4 °F 66% 29.95 in 10.0 mi Calm Calm - N/A   Scattered Clouds
4:55 PM 81.0 °F 83.9 °F 68.7 °F 66% 29.95 in 10.0 mi Calm Calm - N/A   Clear
5:15 PM 82.6 °F 86.1 °F 69.1 °F 64% 29.94 in 10.0 mi NNE 3.5 mph - N/A   Scattered Clouds
5:35 PM 82.0 °F 84.7 °F 67.3 °F 61% 29.94 in 10.0 mi West 4.6 mph - N/A   Scattered Clouds
5:55 PM 81.9 °F 84.8 °F 68.0 °F 63% 29.94 in 10.0 mi Calm Calm - N/A   Scattered Clouds
6:15 PM 80.1 °F 82.7 °F 68.2 °F 67% 29.94 in 10.0 mi North 3.5 mph - N/A   Clear
6:35 PM 81.5 °F 84.6 °F 68.7 °F 65% 29.94 in 10.0 mi Calm Calm - N/A   Clear
6:55 PM 81.5 °F 84.9 °F 69.4 °F 67% 29.93 in 10.0 mi Calm Calm - N/A   Clear
7:15 PM 78.8 °F - 69.4 °F 73% 29.94 in 10.0 mi NNE 3.5 mph - N/A   Mostly Cloudy
7:35 PM 77.5 °F - 68.9 °F 75% 29.93 in 10.0 mi Calm Calm - N/A   Mostly Cloudy
7:55 PM 75.9 °F - 69.8 °F 81% 29.93 in 10.0 mi ENE 4.6 mph - N/A   Overcast
8:15 PM 75.4 °F - 70.2 °F 84% 29.94 in 10.0 mi NNW 9.2 mph - N/A Rain Light Rain
8:35 PM 68.4 °F - 67.1 °F 96% 29.97 in 0.2 mi NE 6.9 mph 21.9 mph N/A Rain Heavy Rain
8:55 PM 68.2 °F - 66.4 °F 94% 29.96 in 7.0 mi NE 3.5 mph - N/A Rain Light Rain
9:15 PM 68.5 °F - 67.1 °F 95% 29.96 in 7.0 mi Calm Calm - N/A Rain Light Rain
9:35 PM 68.5 °F - 67.8 °F 98% 29.97 in 5.0 mi Calm Calm - N/A   Drizzle
9:55 PM 68.9 °F - 68.4 °F 98% 29.98 in 7.0 mi NW 3.5 mph - N/A   Overcast
10:15 PM 69.3 °F - 68.5 °F 98% 29.98 in 3.0 mi North 6.9 mph - N/A Rain Heavy Rain
10:35 PM 69.1 °F - 68.2 °F 97% 29.99 in 5.0 mi NNE 5.8 mph - N/A Rain Light Rain
10:55 PM 68.9 °F - 68.0 °F 97% 29.99 in 5.0 mi NNE 4.6 mph - N/A   Overcast
11:15 PM 68.9 °F - 68.0 °F 97% 29.99 in 7.0 mi NE 4.6 mph - N/A   Overcast
11:35 PM 68.5 °F - 67.5 °F 96% 29.99 in 7.0 mi NNE 3.5 mph - N/A   Overcast
11:55 PM 68.0 °F - 67.1 °F 97% 29.99 in 5.0 mi NNE 6.9 mph - N/A   Overcast